Location: Arbon
(43.0005°N, 0.7472°E)
Time: 22:16:54
(UTC+00:00)

Altair - Pass Details

Date: 05 December 2020
Orbit: 1501 x 1682 km, 47.2° (Epoch: 26 January)

Event Time Altitude Azimuth Distance (km) Brightness Sun altitude
Rises 19:43:34 0° 251° (WSW) 4,760 10.9 -36.0°
Reaches altitude 10° 19:46:41 10° 253° (WSW) 3,753 10.2 -36.6°
Enters shadow 19:55:40 79° 297° (WNW) 1,556 7.4 -38.2°
Maximum altitude 19:56:11 82° 341° (NNW) 1,543 - -38.3°
Drops below altitude 10° 20:05:26 10° 70° (ENE) 3,660 - -40.0°
Sets 20:08:26 0° 71° (ENE) 4,637 - -40.5°
